Home   Weather   Lubec   Past weeks
Flag for USA

Past Weather in Lubec, Maine, USA — Yesterday and Last 2 Weeks

Now
67 °F

Mild.


Feels Like: 67 °F
Forecast: 72 / 60 °F
Wind: 3 mph from Southwest

Location: St. Stephen

Current Time: Aug 22, 2019 at 9:52:18 am

Latest Report: Aug 22, 2019 at 9:00 am


Visibility: N/A

Pressure: 29.79 "Hg

Humidity: 96%

Dew Point: 66 °F

Location of LubecLocation

Past Weather in Lubec — Graph

°F

Lubec Temperature Yesterday

Maximum temperature yesterday: 81 °F (at 12:00 pm)
Minimum temperature yesterday: 49 °F (at 6:00 am)
Average temperature yesterday: 65 °F

High & Low Weather Summary for the Past Weeks

 TemperatureHumidityPressure
High82 °F (Aug 20, 3:00 pm)100% (Aug 9, 2:00 am)30.14 "Hg (Aug 9, 2:00 am)
Low48 °F (Aug 15, 5:00 am)36% (Aug 20, 2:00 pm)29.57 "Hg (Aug 9, 4:00 am)
Average65 °F84%29.87 "Hg
* Reported Aug 7 8:00 am — Aug 22 8:00 am, Lubec. Weather by CustomWeather, © 2019

Note: Actual official high and low records may vary slightly from our data, if they occured in-between our weather recording intervals... More about our weather records

Advertising

Lubec Weather History for the Previous 24 Hours

Scroll right to see more
 ConditionsComfort  
Time TempWeatherWind HumidityBarometerVisibility
8:00 am
Thu, Aug 22
64 °FMild.1 mph100%29.78 "HgN/A
7:00 am63 °FMild.No wind99%29.77 "HgN/A
6:00 am61 °FCool.No wind100%29.76 "HgN/A
5:00 am61 °FCool.2 mph100%29.75 "HgN/A
4:00 am61 °FCool.2 mph99%29.76 "HgN/A
3:00 am61 °FCool.5 mph99%29.76 "HgN/A
2:00 am61 °FCool.3 mph99%29.79 "HgN/A
1:00 am62 °FCool.3 mph98%29.82 "HgN/A
12:00 am62 °FCool.2 mph98%29.85 "HgN/A
11:00 pm
Wed, Aug 21
63 °FMild.7 mph99%29.87 "HgN/A
10:00 pm64 °FMild.3 mph99%29.90 "HgN/A
9:00 pm65 °FMild.3 mph99%29.91 "HgN/A
8:00 pm66 °FMild.2 mph98%29.92 "HgN/A
7:00 pm65 °FMild.1 mph100%29.94 "HgN/A
6:00 pm69 °FMild.3 mph94%29.94 "HgN/A
5:00 pm70 °FMild.5 mph92%29.93 "HgN/A
4:00 pm74 °FMild.8 mph76%29.93 "HgN/A
3:00 pm77 °FWarm.10 mph63%29.93 "HgN/A
2:00 pm80 °FWarm.6 mph64%29.93 "HgN/A
1:00 pm80 °FWarm.9 mph63%29.95 "HgN/A
12:00 pm81 °FWarm.10 mph55%29.97 "HgN/A
11:00 am78 °FWarm.7 mph61%29.99 "HgN/A
10:00 am75 °FMild.3 mph67%30.00 "HgN/A
9:00 am72 °FMild.2 mph73%30.00 "HgN/A
Weather by CustomWeather, © 2019

See weather overview